Regional Weather Roundup
Issued by NWS Upton, NY

Current Version | Previous Version | Text Only | Print | Product List | Glossary On
Versions: 1 2 3 4 5 6 7 8 9 10 11 12 13 14 15 16 17 18 19 20 21 22 23 24 25 26 27 28 29 30 31 32 33 34 35 36 37 38 39 40 41 42 43 44 45 46 47 48 49 50
428
ASUS41 KOKX 191408
RWROKX

REGIONAL WEATHER ROUNDUP
NATIONAL WEATHER SERVICE NEW YORK NY
1000 AM EDT SAT AUG 19 2017

NOTE: "FAIR" INDICATES FEW OR NO CLOUDS BELOW 12,000 FEET WITH NO
SIGNIFICANT WEATHER AND/OR OBSTRUCTIONS TO VISIBILITY.

NYZ071-072-176-178-NJZ106-104-191500-
NEW YORK CITY METRO AREA

CITY           SKY/WX    TMP DP  RH WIND       PRES   REMARKS
Central Park   SUNNY     79  66  64 CALM      29.89R
Bronx Bot Gard   N/A     79  64  61 N3        29.88R
LaGuardia APRT PTSUNNY   81  68  64 NW5       29.85R
Kennedy INTL   PTSUNNY   82  67  60 N7        29.86R
Breezy Point     N/A     75 N/A N/A W5          N/A
Newark/Liberty MOSUNNY   83  66  56 W6        29.85R
Teterboro      SUNNY     82  67  60 VRB6      29.84R
$$

NYZ177-179-078>081-191500-
LONG ISLAND NEW YORK

CITY           SKY/WX    TMP DP  RH WIND       PRES   REMARKS
Jones Beach      N/A     81 N/A N/A NW3         N/A
Matinecock PT    N/A     75 N/A N/A SW5         N/A
Farmingdale    PTSUNNY   81  70  69 CALM      29.86R
MacArthur/ISP  PTSUNNY   82  70  66 VRB6      29.85R
Shirley        CLOUDY    83  71  67 N7        29.85R
Mt Sinai Harb    N/A     79 N/A N/A NW2         N/A
Westhampton    CLOUDY    81  68  64 N7        29.86R
East Hampton   FAIR      79  69  72 N7        29.84R
Montauk          N/A     77  73  87 W7        29.85R
$$

NYZ052-065-067-191500-
HUDSON VALLEY

CITY           SKY/WX    TMP DP  RH WIND       PRES   REMARKS
White Plains   MOSUNNY   79  65  62 NW7       29.86R
Larchmont Harb   N/A     77 N/A N/A W5          N/A
Croton On Huds   N/A     79 N/A N/A MISG        N/A
Newburgh       MOSUNNY   75  70  83 NW8       29.87R
Montgomery     SUNNY     78  66  66 NW6       29.86R
Poughkeepsie   MOSUNNY   76  68  76 CALM      29.84S
Albany         MOSUNNY   76  65  68 NW7       29.84R
$$

NJZ001-105-106-008-010-013-015-019>022-104-191500-
NEW JERSEY

CITY           SKY/WX    TMP DP  RH WIND       PRES   REMARKS
Newark/Liberty MOSUNNY   83  66  56 W6        29.85R
Teterboro      SUNNY     82  67  60 VRB6      29.84R
Caldwell       SUNNY     80  68  66 W3        29.87R
Somerville     SUNNY     82  67  60 N6        29.85R
Linden         FAIR      81  68  65 CALM      29.86R
Perth Amboy      N/A     79 N/A N/A W2          N/A
Sussex         SUNNY     78  66  66 VRB3      29.87R
Andover          N/A     79  67  66 VRB3      29.88R
Trenton        SUNNY     81  69  67 N7        29.88R
Millville      PTSUNNY   82  74  76 N6        29.89R
Atlantic City  PTSUNNY   81  74  79 N7        29.89R
Wrightstown    MOSUNNY   81  69  67 N5        29.85R
Toms River     MOSUNNY   80  71  74 NW3       29.89R
Belmar         MOSUNNY   81  70  69 N8        29.89R
$$

PAZ047>061-062-071-191500-
EASTERN PENNSYLVANIA

CITY           SKY/WX    TMP DP  RH WIND       PRES   REMARKS
Philadelphia   MOSUNNY   82  65  56 N8        29.89R
Allentown      SUNNY     78  66  66 MISG      29.89R
Scranton       PTSUNNY   75  65  70 SW7       29.90R
$$

CTZ002-004>006-009-010-012-RIZ004-006-007-MAZ004-011-015-191500-
SOUTHERN NEW ENGLAND
 IN CT

CITY           SKY/WX    TMP DP  RH WIND       PRES   REMARKS
Bradley INTL   MOSUNNY   80  67  64 W5        29.83S
Hartford       SUNNY     80  66  62 CALM      29.83S
Danbury        MOSUNNY   79  68  69 CALM      29.87R
Wtrbury/Oxford SUNNY     76  66  71 W3        29.88R
Norwalk Harbor   N/A     73 N/A N/A S7          N/A
Bridgeport     MOSUNNY   79  72  79 SW8       29.84R
Meriden        SUNNY     80  66  62 CALM      29.84R
New Haven      MOSUNNY   79  68  69 CALM      29.84S
Chester        FAIR      81  66  61 NW6       29.85S
Groton         SUNNY     82  70  66 NW7       29.82R
Wilimantic     SUNNY     79  69  71 W7        29.84R

 IN RI

CITY           SKY/WX    TMP DP  RH WIND       PRES   REMARKS
Providence     PTSUNNY   81  73  76 NW7       29.82R
Block Island   MOSUNNY   74  71  91 W9        29.84R
Westerly       CLOUDY    82  72  71 VRB5      29.83R
 IN MA

CITY           SKY/WX    TMP DP  RH WIND       PRES   REMARKS
Boston         CLOUDY    66  66 100 SE6       29.82R FOG
Worcester      CLOUDY    75  67  76 SW6       29.85S
Westfield      MOSUNNY   80  67  64 VRB5      29.83S
Provincetown   FOG       66  66 100 N7        29.83R VSB 1/2
Nantucket      CLOUDY    72  72 100 SW12      29.83R FOG
$$

ANZ330-335-338-340-345-350-353-355-191500-
COASTAL MARINE OBSERVATIONS


STATION/POSITION TIME  SKY/WX   TEMP    WIND        PRES    VSBY  WAVE
                                AIR SEA DIR/SP/G                  HT/PER
                 (UTC)          (F)     (DEG/KT/KT) (MB)    (MI)  (FT/S)
NY HARB ENTRANCE 1250            74 74  290/  6/  8 1010.1          3/ 6
GREAT SOUTH BAY  1330            77 78  300/  2/  4   N/A
23 SSW MONTAUK P 1350            72 71              1010.6          4/ 7
15 E BARNEGAT LI 1330               76                N/A           3/ 6
HUDSON CANYON    1350            75 74  230/  6/  6 1011.2          4/ 6
KINGS POINT      1342            77 74  350/  4/  5 1010.9
EXECUTION ROCKS  NOT AVBL
WESTERN LI SOUND NOT AVBL
CENTRAL LI SOUND NOT AVBL
EASTERN LI SOUND NOT AVBL
ROBBINS REEF     1348                    20/  3/  4 1011.7
$$


>>>>>>>>>>>>>>>>>>>>>>>>>>>> KEY <<<<<<<<<<<<<<<<<<<<<<<<<<<
>                                                          <
>     SKY/WX - Sky Condition/Present Weather               <
>     TMP    - Temperature in Fahrenheit                   <
>     DP     - Dew Point in Fahrenheit                     <
>     RH     - Relative Humidity in Percent                <
>     WIND   - Direction (from) and Speed in MPH           <
>     PRES   - Mean Sea Level Pressure (inches of Hg)      <
>     WCI    - Wind Chill Index                            <
>     VSB    - VISIBILITY IN MILES                         <
>     HX     - HEAT INDEX                                  <
>     TC     - TEMPERATURE IN CELSIUS                      <
>     VRB    - VARIABLE WIND DIRECTION                     <
>                                                          <
>>>>>>>>>>>>>>>>>>>>>>>>>>>> KEY <<<<<<<<<<<<<<<<<<<<<<<<<<<




USA.gov is the U.S. government's official web portal to all federal, state and local government web resources and services.